Погода в Новобурейском

Россия / Амурская область     49°47′55″N   129°52′24″E
темп.,
°C
ветер,
м/с
пор.,
м/с
влажн.,
%
обл.,
%
осадки,
мм/ч
давл.,
гПа
погр.,
м
28 февраля, вс
вс2800:00−8ю5895100 1.8 1014219
03:00−9сз71284100 2.1 1016513
06:00−16сз4983100 0.0 1021236
09:00−16сз51080100 0.0 1024438
12:00−13сз587746 0.0 1025646
15:00−13сз697723 0.0 1025850
18:00−17зсз348454 0.0 102738
21:00−20сз488527 0.0 1030125
1 марта, пн
пн100:00−21сз48840 0.0 1032132
03:00−24сз45850 0.0 103572
06:00−27зсз23860 0.0 103521
09:00−23сз138132 0.0 1035128
12:00−17з2464100 0.0 1034742
15:00−16зсз457799 0.0 1032895
18:00−21сз238565 0.0 103220
21:00−26зюз118732 0.0 103320
2 марта, вт
вт200:00−27юз01880 0.0 103320
03:00−29всв11900 0.0 103319
06:00−28вюв128941 0.0 103319
09:00−23ююв248971 0.0 1032193
12:00−19ю2390100 0.0 1030331
15:00−15юз1281100 0.1 1028565
18:00−20вюв229470 0.0 102820
21:00−21юв229071 0.0 102820
3 марта, ср
ср300:00−18ююв389398 0.0 1026216
03:00−17ююв499299 0.0 1024221
06:00−18ююв51092100 0.0 1022254
09:00−14ююв71193100 0.6 1019415
12:00−11ююв81285100 0.1 1015546
15:00−9ююв8127999 0.1 1012568
18:00−11ююв8158895 0.0 1012448
21:00−12ююв5119498 0.2 1012355
4 марта, чт
чт400:00−14ююв3697100 0.1 1012128
03:00−14ююв2397100 0.3 101263
06:00−14ю2297100 0.1 101239
09:00−11ю3496100 0.2 1012209
12:00−9з4592100 0.5 1011519
15:00−12сз6887100 0.7 1012522
18:00−17сз5118897 0.0 1016332
21:00−20ссз4108967 0.0 1021247